Miscellaneous Local Product
Issued by NWS North Platte, NE

Home | Current Version | Previous Version | Text Only | Print | Product List | Glossary On
Versions: 1 2 3 4 5 6 7 8 9 10 11 12 13 14 15 16 17 18 19 20 21 22 23 24 25 26 27 28 29 30 31 32 33 34 35 36 37 38 39 40 41 42 43 44 45 46 47 48 49 50
000
AXUS43 KLBF 162110
MISLBF


WESTERN AND NORTH CENTRAL NEBRASKA HOURLY WEATHER ROUNDUP
NATIONAL WEATHER SERVICE NORTH PLATTE NE
400 PM CDT TUE SEP 16 2014

***STATIONS NOT REPORTING VARIABLES SUCH AS SKY/WEATHER OR
PRESSURE ARE PROVIDED BY THE NEBRASKA DEPARTMENT OF
ROADS...RAWS...AND APRS NETWORKS...AND ARE NOT UNDER
NATIONAL WEATHER SERVICE QUALITY CONTROL***

...OBSERVATIONS IN AND NEAR THE EASTERN PANHANDLE OF NEBRASKA...

CITY           SKY/WX    TMP DP  RH WIND       PRES   REMARKS
PINE RIDGE     MOSUNNY   80  49  33 CALM      29.99F
CHADRON        MOSUNNY   85  44  23 NE3       29.97F
ALLIANCE       PTSUNNY   84  43  23 N6        30.02F
SIDNEY         SUNNY     86  40  19 N12G23    30.07F
WHITECLAY        N/A     79  46  31 CALM        N/A
RUSHVILLE        N/A     86  32  14 N12         N/A
CRESCENT LAKE    N/A     83  51  32 N8          N/A
LISCO            N/A     87  41  19 NW7         N/A
BIG SPRINGS      N/A     82  55  39 CALM        N/A
$$

...OBSERVATIONS IN NORTH CENTRAL NEBRASKA...

CITY           SKY/WX    TMP DP  RH WIND       PRES   REMARKS
VALENTINE      SUNNY     80  56  43 CALM      29.96F
THEDFORD       SUNNY     80  58  46 W6        29.98F
AINSWORTH      SUNNY     76  57  51 S10G16    29.96F
O`NEILL        PTSUNNY   70  57  64 S15G21    30.00F
ORD            CLOUDY    68  55  63 S16G23    30.01F
BROKEN BOW     CLOUDY    68  56  65 S15G21    30.02F
SPRINGVIEW       N/A     78  60  53 S5G12       N/A
ROSE             N/A     75  60  59 S14         N/A
NEWPORT          N/A     75  57  53 S13         N/A
COMSTOCK         N/A     72  61  68 S7          N/A
CHAMBERS         N/A     72  55  54 S12G20      N/A
$$

...OBSERVATIONS IN SOUTHWEST NEBRASKA AND FAR NORTHEAST COLORADO...

CITY           SKY/WX    TMP DP  RH WIND       PRES   REMARKS
WRAY           FAIR      92  40  16 NW12G18   30.00F
HOLYOKE        FAIR      88  46  23 NW10      30.01S
IMPERIAL       MOSUNNY   85  51  31 W9        29.98F
OGALLALA       MOSUNNY   83  55  38 N7        29.99F
NORTH PLATTE   SUNNY     76  58  53 S16G23    29.98F
MCCOOK         SUNNY     78  58  49 S15       29.99F
LEXINGTON      CLOUDY    70  59  67 S13G18    30.03F
PAXTON           N/A     79  60  52 CALM        N/A
SUTHERLAND       N/A     83  56  40 S6          N/A
BRADY            N/A     75  60  60 CALM        N/A
GOTHENBURG       N/A     70  53  55 S8          N/A
CALLAWAY         N/A     70  60  70 S15         N/A
$$

...SOME WEATHER OBSERVATIONS FROM AROUND THE REGION...

CITY           SKY/WX    TMP DP  RH WIND       PRES   REMARKS
DENVER         MOSUNNY   87  34  15 VRB7      30.13F
LARAMIE        MOSUNNY   77  29  17 NW20      30.25F
CHEYENNE       MOSUNNY   81  28  14 NW20G28   30.17F
SCOTTSBLUFF    SUNNY     87  47  24 W7        30.03F
RAPID CITY     MOSUNNY   80  44  27 SE6       29.97F
PIERRE         SUNNY     75  52  44 CALM      29.92F
WINNER         FAIR      78  55  44 SW7       29.94F
SIOUX FALLS    PTSUNNY   67  49  52 S17       30.03F
OMAHA          MOSUNNY   68  49  50 S10       30.08F
GRAND ISLAND   CLOUDY    69  54  58 S13       30.04F
KANSAS CITY    SUNNY     69  50  50 S6        30.10F
WICHITA        SUNNY     79  60  52 VRB7      30.06F
HAYS           MOSUNNY   75  61  60 S13G22    30.03F
LIBERAL        SUNNY     86  61  42 SW16G22   30.07F
GOODLAND       SUNNY     84  55  36 SW10      30.02F
$$



USA.gov is the U.S. government's official web portal to all federal, state and local government web resources and services.